Time,TemperatureF,DewpointF,PressureIn,WindDirection,WindDirectionDegrees,WindSpeedMPH,WindSpeedGustMPH,Humidity,HourlyPrecipIn,Conditions,Clouds,dailyrainin,SoftwareType,DateUTC
2013-05-31 00:00:00,55.0,49.0,30.02,SSE,150,13.0,26.0,79,-99.99,,,-99.99,,2013-05-31 08:00:00,
2013-05-31 00:41:00,55.0,49.0,30.02,SSE,150,13.0,26.0,79,-99.99,,,-99.99,,2013-05-31 08:41:00,
2013-05-31 00:51:00,55.0,49.0,30.02,SSE,150,13.0,26.0,79,-99.99,,,-99.99,,2013-05-31 08:51:00,
2013-05-31 01:00:00,54.0,50.0,30.02,South,170,17.0,25.0,86,-99.99,,,-99.99,,2013-05-31 09:00:00,
2013-05-31 01:42:00,54.0,50.0,30.02,South,170,17.0,25.0,86,-99.99,,,-99.99,,2013-05-31 09:42:00,
2013-05-31 01:53:00,54.0,50.0,30.02,South,170,17.0,25.0,86,-99.99,,,-99.99,,2013-05-31 09:53:00,
2013-05-31 02:00:00,53.0,50.0,30.03,SSE,160,17.0,26.0,89,-99.99,,,-99.99,,2013-05-31 10:00:00,
2013-05-31 02:42:00,53.0,50.0,30.03,SSE,160,17.0,26.0,89,-99.99,,,-99.99,,2013-05-31 10:42:00,
2013-05-31 02:52:00,53.0,50.0,30.03,SSE,160,17.0,26.0,89,-99.99,,,-99.99,,2013-05-31 10:52:00,
2013-05-31 03:00:00,52.0,49.0,30.05,South,170,21.0,30.0,89,-99.99,,,-99.99,,2013-05-31 11:00:00,
2013-05-31 03:41:00,52.0,49.0,30.05,South,170,21.0,30.0,89,-99.99,,,-99.99,,2013-05-31 11:41:00,
2013-05-31 03:52:00,52.0,49.0,30.05,South,170,21.0,30.0,89,-99.99,,,-99.99,,2013-05-31 11:52:00,
2013-05-31 04:00:00,52.0,49.0,30.06,SSE,160,22.0,31.0,89,-99.99,,,-99.99,,2013-05-31 12:00:00,
2013-05-31 04:41:00,52.0,49.0,30.06,SSE,160,22.0,31.0,89,-99.99,,,-99.99,,2013-05-31 12:41:00,
2013-05-31 04:51:00,52.0,49.0,30.06,SSE,160,22.0,31.0,89,-99.99,,,-99.99,,2013-05-31 12:51:00,
2013-05-31 05:00:00,51.0,49.0,30.06,South,170,20.0,29.0,92,-99.99,,,-99.99,,2013-05-31 13:00:00,
2013-05-31 05:51:00,51.0,49.0,30.06,South,170,20.0,29.0,92,-99.99,,,-99.99,,2013-05-31 13:51:00,
2013-05-31 06:00:00,51.0,48.0,30.06,South,170,24.0,34.0,89,-99.99,,,-99.99,,2013-05-31 14:00:00,
2013-05-31 06:41:00,51.0,48.0,30.06,South,170,24.0,34.0,89,-99.99,,,-99.99,,2013-05-31 14:41:00,
2013-05-31 06:52:00,51.0,48.0,30.06,South,170,24.0,34.0,89,-99.99,,,-99.99,,2013-05-31 14:52:00,
2013-05-31 07:00:00,51.0,47.0,30.08,South,170,23.0,34.0,85,-99.99,,,-99.99,,2013-05-31 15:00:00,
2013-05-31 07:42:00,51.0,47.0,30.08,South,170,23.0,34.0,85,-99.99,,,-99.99,,2013-05-31 15:42:00,
2013-05-31 07:53:00,51.0,47.0,30.08,South,170,23.0,34.0,85,-99.99,,,-99.99,,2013-05-31 15:53:00,
2013-05-31 08:00:00,51.0,47.0,30.09,SSE,160,25.0,33.0,85,-99.99,,,-99.99,,2013-05-31 16:00:00,
2013-05-31 08:41:00,51.0,47.0,30.09,SSE,160,25.0,33.0,85,-99.99,,,-99.99,,2013-05-31 16:41:00,
2013-05-31 08:52:00,51.0,47.0,30.09,SSE,160,25.0,33.0,85,-99.99,,,-99.99,,2013-05-31 16:52:00,
2013-05-31 09:00:00,51.0,47.0,30.10,South,170,23.0,30.0,85,-99.99,,,-99.99,,2013-05-31 17:00:00,
2013-05-31 09:42:00,51.0,47.0,30.10,South,170,23.0,30.0,85,-99.99,,,-99.99,,2013-05-31 17:42:00,
2013-05-31 09:52:00,51.0,47.0,30.10,South,170,23.0,30.0,85,-99.99,,,-99.99,,2013-05-31 17:52:00,
2013-05-31 10:00:00,50.0,47.0,30.12,South,170,21.0,31.0,89,-99.99,,,-99.99,,2013-05-31 18:00:00,
2013-05-31 10:41:00,50.0,47.0,30.12,South,170,21.0,31.0,89,-99.99,,,-99.99,,2013-05-31 18:41:00,
2013-05-31 10:52:00,50.0,47.0,30.12,South,170,21.0,31.0,89,-99.99,,,-99.99,,2013-05-31 18:52:00,
2013-05-31 11:00:00,50.0,47.0,30.13,South,170,21.0,30.0,89,-99.99,,,-99.99,,2013-05-31 19:00:00,
2013-05-31 11:41:00,50.0,47.0,30.13,South,170,21.0,30.0,89,-99.99,,,-99.99,,2013-05-31 19:41:00,
2013-05-31 11:52:00,50.0,47.0,30.13,South,170,21.0,30.0,89,-99.99,,,-99.99,,2013-05-31 19:52:00,
2013-05-31 12:00:00,51.0,48.0,30.12,SSE,160,26.0,38.0,89,-99.99,,,-99.99,,2013-05-31 20:00:00,
2013-05-31 12:41:00,51.0,48.0,30.12,SSE,160,26.0,38.0,89,-99.99,,,-99.99,,2013-05-31 20:41:00,
2013-05-31 12:51:00,51.0,48.0,30.12,SSE,160,26.0,38.0,89,-99.99,,,-99.99,,2013-05-31 20:51:00,
2013-05-31 13:00:00,50.0,47.0,30.13,South,170,28.0,38.0,89,-99.99,,,-99.99,,2013-05-31 21:00:00,
2013-05-31 13:42:00,50.0,47.0,30.13,South,170,28.0,38.0,89,-99.99,,,-99.99,,2013-05-31 21:42:00,
2013-05-31 13:53:00,50.0,47.0,30.13,South,170,28.0,38.0,89,-99.99,,,-99.99,,2013-05-31 21:53:00,
2013-05-31 14:00:00,50.0,47.0,30.13,SSE,160,26.0,41.0,89,-99.99,,,-99.99,,2013-05-31 22:00:00,
2013-05-31 14:41:00,50.0,47.0,30.13,SSE,160,26.0,41.0,89,-99.99,,,-99.99,,2013-05-31 22:41:00,
2013-05-31 14:52:00,50.0,47.0,30.13,SSE,160,26.0,41.0,89,-99.99,,,-99.99,,2013-05-31 22:52:00,
2013-05-31 16:00:00,49.0,47.0,30.16,SSE,160,32.0,46.0,92,-99.99,,,-99.99,,2013-06-01 00:00:00,
2013-05-31 16:41:00,49.0,47.0,30.16,SSE,160,32.0,46.0,92,-99.99,,,-99.99,,2013-06-01 00:41:00,
2013-05-31 16:51:00,49.0,47.0,30.16,SSE,160,32.0,46.0,92,-99.99,,,-99.99,,2013-06-01 00:51:00,
2013-05-31 17:00:00,49.0,46.0,30.18,SSE,160,32.0,44.0,89,-99.99,,,-99.99,,2013-06-01 01:00:00,
2013-05-31 17:41:00,49.0,46.0,30.18,SSE,160,32.0,44.0,89,-99.99,,,-99.99,,2013-06-01 01:41:00,
2013-05-31 17:52:00,49.0,46.0,30.18,SSE,160,32.0,44.0,89,-99.99,,,-99.99,,2013-06-01 01:52:00,
2013-05-31 18:00:00,49.0,46.0,30.18,SSE,160,30.0,45.0,89,-99.99,,,-99.99,,2013-06-01 02:00:00,
2013-05-31 18:41:00,49.0,46.0,30.18,SSE,160,30.0,45.0,89,-99.99,,,-99.99,,2013-06-01 02:41:00,
2013-05-31 18:51:00,49.0,46.0,30.18,SSE,160,30.0,45.0,89,-99.99,,,-99.99,,2013-06-01 02:51:00,
2013-05-31 19:00:00,49.0,47.0,30.19,SSE,160,29.0,40.0,92,-99.99,,,-99.99,,2013-06-01 03:00:00,
2013-05-31 19:43:00,49.0,47.0,30.19,SSE,160,29.0,40.0,92,-99.99,,,-99.99,,2013-06-01 03:43:00,
2013-05-31 19:53:00,49.0,47.0,30.19,SSE,160,29.0,40.0,92,-99.99,,,-99.99,,2013-06-01 03:53:00,
2013-05-31 20:00:00,48.0,47.0,30.19,SSE,160,25.0,34.0,96,-99.99,,,-99.99,,2013-06-01 04:00:00,
2013-05-31 20:42:00,48.0,47.0,30.19,SSE,160,25.0,34.0,96,-99.99,,,-99.99,,2013-06-01 04:42:00,
2013-05-31 20:53:00,48.0,47.0,30.19,SSE,160,25.0,34.0,96,-99.99,,,-99.99,,2013-06-01 04:53:00,
2013-05-31 21:00:00,48.0,46.0,30.19,South,170,23.0,33.0,92,-99.99,,,-99.99,,2013-06-01 05:00:00,
2013-05-31 21:42:00,48.0,46.0,30.19,South,170,23.0,33.0,92,-99.99,,,-99.99,,2013-06-01 05:42:00,
2013-05-31 21:52:00,48.0,46.0,30.19,South,170,23.0,33.0,92,-99.99,,,-99.99,,2013-06-01 05:52:00,
2013-05-31 22:00:00,47.0,45.0,30.19,South,180,22.0,31.0,92,-99.99,,,-99.99,,2013-06-01 06:00:00,
2013-05-31 22:41:00,47.0,45.0,30.19,South,180,22.0,31.0,92,-99.99,,,-99.99,,2013-06-01 06:41:00,
2013-05-31 22:51:00,47.0,45.0,30.19,South,180,22.0,31.0,92,-99.99,,,-99.99,,2013-06-01 06:51:00,